date,time,SUV Intensity [MED/Hr],UV Index,Daily total [MED],Since Last [MED]
10/06/2022,00:09:04,0.000,0.0,0.0,0.0
10/06/2022,00:11:04,0.000,0.0,0.0,0.0
10/06/2022,00:13:05,0.000,0.0,0.0,0.0
10/06/2022,00:15:05,0.000,0.0,0.0,0.0
10/06/2022,00:17:05,0.001,0.0,0.0,0.0
10/06/2022,00:19:05,0.000,0.0,0.0,0.0
10/06/2022,00:21:04,0.000,0.0,0.0,0.0
10/06/2022,00:23:05,0.001,0.0,0.0,0.0
10/06/2022,00:25:13,0.001,0.0,0.0,0.0
10/06/2022,00:27:05,0.001,0.0,0.0,0.0
10/06/2022,00:29:04,0.001,0.0,0.0,0.0
10/06/2022,00:31:04,0.001,0.0,0.0,0.0
10/06/2022,00:33:05,-0.000,0.0,0.0,0.0
10/06/2022,00:35:04,0.001,0.0,0.0,0.0
10/06/2022,00:37:05,0.002,0.0,0.0,0.0
10/06/2022,00:39:05,0.001,0.0,0.0,0.0
10/06/2022,00:41:05,0.001,0.0,0.0,0.0
10/06/2022,00:43:04,0.002,0.0,0.0,0.0
10/06/2022,00:45:04,0.001,0.0,0.0,0.0
10/06/2022,00:47:05,0.001,0.0,0.0,0.0
10/06/2022,00:49:05,0.001,0.0,0.0,0.0
10/06/2022,00:51:05,0.001,0.0,0.0,0.0
10/06/2022,00:53:05,0.002,0.0,0.0,0.0
10/06/2022,00:55:05,0.001,0.0,0.0,0.0
10/06/2022,00:57:05,0.001,0.0,0.0,0.0
10/06/2022,00:59:05,0.002,0.0,0.0,0.0
10/06/2022,01:01:13,0.000,0.0,0.0,0.0
10/06/2022,01:03:05,0.001,0.0,0.0,0.0
10/06/2022,01:05:05,0.001,0.0,0.0,0.0
10/06/2022,01:07:04,0.001,0.0,0.0,0.0
10/06/2022,01:09:05,0.001,0.0,0.0,0.0
10/06/2022,01:11:13,0.001,0.0,0.0,0.0
10/06/2022,01:13:05,0.002,0.0,0.0,0.0
10/06/2022,01:15:05,0.000,0.0,0.0,0.0
10/06/2022,01:17:05,0.001,0.0,0.0,0.0
10/06/2022,01:19:05,0.001,0.0,0.0,0.0
10/06/2022,01:21:04,0.002,0.0,0.0,0.0
10/06/2022,01:23:05,0.001,0.0,0.0,0.0
10/06/2022,01:25:05,0.001,0.0,0.0,0.0
10/06/2022,01:27:05,0.001,0.0,0.0,0.0
10/06/2022,01:29:05,0.001,0.0,0.0,0.0
10/06/2022,01:31:13,0.001,0.0,0.0,0.0
10/06/2022,01:33:05,0.000,0.0,0.0,0.0
10/06/2022,01:35:05,0.001,0.0,0.0,0.0
10/06/2022,01:37:04,0.001,0.0,0.0,0.0
10/06/2022,01:39:05,0.001,0.0,0.0,0.0
10/06/2022,01:41:05,0.001,0.0,0.0,0.0
10/06/2022,01:43:13,0.002,0.0,0.0,0.0
10/06/2022,01:45:04,0.001,0.0,0.0,0.0
10/06/2022,01:47:05,0.001,0.0,0.0,0.0
10/06/2022,01:49:05,0.001,0.0,0.0,0.0
10/06/2022,01:51:05,0.001,0.0,0.0,0.0
10/06/2022,01:53:13,0.002,0.0,0.0,0.0
10/06/2022,01:55:05,0.002,0.0,0.0,0.0
10/06/2022,01:57:12,0.001,0.0,0.0,0.0
10/06/2022,01:59:06,0.001,0.0,0.0,0.0
10/06/2022,02:01:04,0.001,0.0,0.0,0.0
10/06/2022,02:03:15,0.001,0.0,0.0,0.0
10/06/2022,02:05:04,0.002,0.0,0.0,0.0
10/06/2022,02:07:05,0.001,0.0,0.0,0.0
10/06/2022,02:09:05,0.000,0.0,0.0,0.0
10/06/2022,02:11:04,0.001,0.0,0.0,0.0
10/06/2022,02:13:14,0.001,0.0,0.0,0.0
10/06/2022,02:15:04,0.002,0.0,0.0,0.0
10/06/2022,02:17:05,0.002,0.0,0.0,0.0
10/06/2022,02:19:05,0.000,0.0,0.0,0.0
10/06/2022,02:21:05,0.000,0.0,0.0,0.0
10/06/2022,02:23:13,0.002,0.0,0.0,0.0
10/06/2022,02:25:05,0.001,0.0,0.0,0.0
10/06/2022,02:27:05,0.000,0.0,0.0,0.0
10/06/2022,02:29:05,0.001,0.0,0.0,0.0
10/06/2022,02:31:05,0.001,0.0,0.0,0.0
10/06/2022,02:33:13,0.001,0.0,0.0,0.0
10/06/2022,02:35:05,0.000,0.0,0.0,0.0
10/06/2022,02:37:04,0.003,0.0,0.0,0.0
10/06/2022,02:39:13,0.001,0.0,0.0,0.0
10/06/2022,02:41:05,0.002,0.0,0.0,0.0
10/06/2022,02:43:05,0.001,0.0,0.0,0.0
10/06/2022,02:45:05,0.001,0.0,0.0,0.0
10/06/2022,02:47:04,0.001,0.0,0.0,0.0
10/06/2022,02:49:04,0.001,0.0,0.0,0.0
10/06/2022,02:51:05,0.001,0.0,0.0,0.0
10/06/2022,02:53:06,0.001,0.0,0.0,0.0
10/06/2022,02:55:05,0.002,0.0,0.0,0.0
10/06/2022,02:57:05,0.001,0.0,0.0,0.0
10/06/2022,02:59:05,0.001,0.0,0.0,0.0
10/06/2022,03:01:06,0.001,0.0,0.0,0.0
10/06/2022,03:03:05,0.002,0.0,0.0,0.0
10/06/2022,03:05:13,0.002,0.0,0.0,0.0
10/06/2022,03:07:05,0.001,0.0,0.0,0.0
10/06/2022,03:09:05,0.001,0.0,0.0,0.0
10/06/2022,03:11:05,0.002,0.0,0.0,0.0
10/06/2022,03:13:05,0.002,0.0,0.0,0.0
10/06/2022,03:15:05,0.002,0.0,0.0,0.0
10/06/2022,03:17:05,0.002,0.0,0.0,0.0
10/06/2022,03:19:13,0.002,0.0,0.0,0.0
10/06/2022,03:21:04,0.001,0.0,0.0,0.0
10/06/2022,03:23:05,0.002,0.0,0.0,0.0
10/06/2022,03:25:05,0.001,0.0,0.0,0.0
10/06/2022,03:27:04,0.002,0.0,0.0,0.0
10/06/2022,03:29:05,0.001,0.0,0.0,0.0
10/06/2022,03:31:06,0.002,0.0,0.0,0.0
10/06/2022,03:33:05,0.001,0.0,0.0,0.0
10/06/2022,03:35:13,0.002,0.0,0.0,0.0
10/06/2022,03:37:04,0.003,0.0,0.0,0.0
10/06/2022,03:39:04,0.003,0.0,0.0,0.0
10/06/2022,03:41:05,0.002,0.0,0.0,0.0
10/06/2022,03:43:05,0.004,0.0,0.0,0.0
10/06/2022,03:45:05,0.004,0.0,0.0,0.0
10/06/2022,03:47:05,0.003,0.0,0.0,0.0
10/06/2022,03:49:05,0.002,0.0,0.0,0.0
10/06/2022,03:51:05,0.003,0.0,0.0,0.0
10/06/2022,03:53:05,0.003,0.0,0.0,0.0
10/06/2022,03:55:05,0.004,0.0,0.0,0.0
10/06/2022,03:57:05,0.005,0.0,0.0,0.0
10/06/2022,03:59:05,0.005,0.0,0.0,0.0
10/06/2022,04:01:05,0.005,0.0,0.0,0.0
10/06/2022,04:03:05,0.005,0.0,0.0,0.0
10/06/2022,04:05:05,0.005,0.0,0.0,0.0
10/06/2022,04:07:05,0.006,0.0,0.0,0.0
10/06/2022,04:09:05,0.007,0.0,0.0,0.0
10/06/2022,04:11:04,0.007,0.0,0.0,0.0
10/06/2022,04:13:05,0.007,0.0,0.001,0.001
10/06/2022,04:15:13,0.008,0.0,0.001,0.0
10/06/2022,04:17:04,0.008,0.0,0.001,0.0
10/06/2022,04:19:05,0.008,0.0,0.001,0.0
10/06/2022,04:21:05,0.009,0.0,0.002,0.001
10/06/2022,04:23:05,0.010,0.0,0.002,0.0
10/06/2022,04:25:05,0.011,0.0,0.002,0.0
10/06/2022,04:27:04,0.011,0.0,0.003,0.001
10/06/2022,04:29:05,0.012,0.0,0.003,0.0
10/06/2022,04:31:05,0.012,0.0,0.004,0.001
10/06/2022,04:33:05,0.014,0.0,0.004,0.0
10/06/2022,04:35:05,0.015,0.0,0.005,0.001
10/06/2022,04:37:05,0.016,0.0,0.005,0.0
10/06/2022,04:39:05,0.017,0.0,0.006,0.001
10/06/2022,04:41:05,0.017,0.0,0.006,0.0
10/06/2022,04:43:05,0.019,0.0,0.007,0.001
10/06/2022,04:45:05,0.018,0.0,0.007,0.0
10/06/2022,04:47:14,0.020,0.0,0.008,0.001
10/06/2022,04:50:05,0.021,0.0,0.009,0.001
10/06/2022,04:52:05,0.025,0.0,0.01,0.001
10/06/2022,04:54:05,0.027,0.0,0.011,0.001
10/06/2022,04:56:05,0.029,0.0,0.012,0.001
10/06/2022,04:58:05,0.030,0.0,0.013,0.001
10/06/2022,05:00:14,0.032,0.0,0.014,0.001
10/06/2022,05:02:05,0.033,0.0,0.015,0.001
10/06/2022,05:04:05,0.036,0.0,0.016,0.001
10/06/2022,05:06:05,0.039,0.0,0.017,0.001
10/06/2022,05:08:05,0.040,0.0,0.018,0.001
10/06/2022,05:10:05,0.043,0.0,0.02,0.002
10/06/2022,05:12:05,0.045,0.0,0.021,0.001
10/06/2022,05:14:05,0.047,0.0,0.023,0.002
10/06/2022,05:16:12,0.050,0.0,0.025,0.002
10/06/2022,05:18:05,0.052,0.0,0.026,0.001
10/06/2022,05:20:05,0.055,0.0,0.028,0.002
10/06/2022,05:22:05,0.057,0.0,0.03,0.002
10/06/2022,05:24:05,0.061,0.0,0.032,0.002
10/06/2022,05:26:05,0.062,0.0,0.034,0.002
10/06/2022,05:28:05,0.066,0.0,0.036,0.002
10/06/2022,05:30:05,0.069,0.0,0.038,0.002
10/06/2022,05:32:05,0.073,0.0,0.041,0.003
10/06/2022,05:34:05,0.076,0.0,0.043,0.002
10/06/2022,05:36:05,0.080,0.0,0.046,0.003
10/06/2022,05:38:05,0.084,0.0,0.048,0.002
10/06/2022,05:40:05,0.087,0.0,0.051,0.003
10/06/2022,05:42:05,0.092,0.0,0.054,0.003
10/06/2022,05:44:14,0.096,0.0,0.058,0.004
10/06/2022,05:46:05,0.100,0.0,0.061,0.003
10/06/2022,05:48:05,0.105,0.0,0.064,0.003
10/06/2022,05:50:05,0.109,0.0,0.068,0.004
10/06/2022,05:52:05,0.114,0.0,0.071,0.003
10/06/2022,05:54:13,0.119,0.0,0.075,0.004
10/06/2022,05:56:05,0.124,0.0,0.079,0.004
10/06/2022,05:58:05,0.129,0.0,0.084,0.005
10/06/2022,06:00:05,0.135,0.0,0.088,0.004
10/06/2022,06:02:05,0.140,0.0,0.093,0.005
10/06/2022,06:04:05,0.146,0.0,0.097,0.004
10/06/2022,06:06:05,0.152,0.0,0.102,0.005
10/06/2022,06:08:05,0.158,0.0,0.107,0.005
10/06/2022,06:10:05,0.165,0.0,0.113,0.006
10/06/2022,06:12:05,0.171,0.0,0.118,0.005
10/06/2022,06:14:05,0.178,0.0,0.124,0.006
10/06/2022,06:16:05,0.184,0.0,0.13,0.006
10/06/2022,06:18:05,0.191,0.0,0.137,0.007
10/06/2022,06:20:05,0.197,0.0,0.143,0.006
10/06/2022,06:22:05,0.205,0.0,0.15,0.007
10/06/2022,06:24:05,0.212,0.0,0.157,0.007
10/06/2022,06:26:05,0.221,1.0,0.164,0.007
10/06/2022,06:28:05,0.228,1.0,0.171,0.007
10/06/2022,06:30:05,0.236,1.0,0.179,0.008
10/06/2022,06:32:06,0.245,1.0,0.187,0.008
10/06/2022,06:34:05,0.253,1.0,0.195,0.008
10/06/2022,06:36:05,0.261,1.0,0.204,0.009
10/06/2022,06:38:06,0.270,1.0,0.213,0.009
10/06/2022,06:40:14,0.279,1.0,0.223,0.01
10/06/2022,06:43:06,0.293,1.0,0.236,0.013
10/06/2022,06:45:05,0.303,1.0,0.246,0.01
10/06/2022,06:47:05,0.313,1.0,0.257,0.011
10/06/2022,06:49:05,0.323,1.0,0.267,0.01
10/06/2022,06:51:05,0.331,1.0,0.278,0.011
10/06/2022,06:53:06,0.343,1.0,0.289,0.011
10/06/2022,06:55:06,0.353,1.0,0.301,0.012
10/06/2022,06:57:06,0.366,1.0,0.313,0.012
10/06/2022,06:59:05,0.376,1.0,0.325,0.012
10/06/2022,07:01:05,0.387,1.0,0.338,0.013
10/06/2022,07:03:05,0.400,1.0,0.351,0.013
10/06/2022,07:05:05,0.410,1.0,0.364,0.013
10/06/2022,07:07:05,0.420,1.0,0.378,0.014
10/06/2022,07:09:05,0.435,1.0,0.393,0.015
10/06/2022,07:11:05,0.447,1.0,0.407,0.014
10/06/2022,07:13:05,0.459,1.0,0.423,0.016
10/06/2022,07:15:05,0.472,1.0,0.438,0.015
10/06/2022,07:17:05,0.484,1.0,0.454,0.016
10/06/2022,07:19:05,0.498,1.0,0.47,0.016
10/06/2022,07:21:05,0.512,1.0,0.487,0.017
10/06/2022,07:23:05,0.525,1.0,0.504,0.017
10/06/2022,07:25:05,0.538,1.0,0.522,0.018
10/06/2022,07:27:05,0.553,1.0,0.54,0.018
10/06/2022,07:29:05,0.566,1.0,0.559,0.019
10/06/2022,07:31:05,0.581,1.0,0.578,0.019
10/06/2022,07:33:05,0.597,1.0,0.598,0.02
10/06/2022,07:35:05,0.611,1.0,0.618,0.02
10/06/2022,07:37:05,0.629,1.0,0.638,0.02
10/06/2022,07:39:06,0.644,1.0,0.66,0.022
10/06/2022,07:41:05,0.659,2.0,0.681,0.021
10/06/2022,07:43:14,0.685,2.0,0.706,0.025
10/06/2022,07:45:05,0.704,2.0,0.727,0.021
10/06/2022,07:47:05,0.718,2.0,0.75,0.023
10/06/2022,07:49:05,0.733,2.0,0.775,0.025
10/06/2022,07:51:06,0.749,2.0,0.799,0.024
10/06/2022,07:53:05,0.742,2.0,0.824,0.025
10/06/2022,07:55:05,0.785,2.0,0.848,0.024
10/06/2022,07:57:06,0.814,2.0,0.875,0.027
10/06/2022,07:59:06,0.824,2.0,0.901,0.026
10/06/2022,08:01:05,0.777,2.0,0.927,0.026
10/06/2022,08:03:05,0.638,1.0,0.953,0.026
10/06/2022,08:05:05,0.886,2.0,0.979,0.026
10/06/2022,08:07:05,0.902,2.0,1.007,0.028
10/06/2022,08:09:05,0.911,2.0,1.035,0.028
10/06/2022,08:11:05,0.661,2.0,1.062,0.027
10/06/2022,08:13:05,0.971,2.0,1.092,0.03
10/06/2022,08:15:06,0.860,2.0,1.125,0.033
10/06/2022,08:17:21,1.005,2.0,1.161,0.036
10/06/2022,08:20:14,0.895,2.0,1.201,0.04
10/06/2022,08:23:06,1.015,2.0,1.244,0.043
10/06/2022,08:25:13,0.720,2.0,1.275,0.031
10/06/2022,08:27:05,0.802,2.0,1.303,0.028
10/06/2022,08:29:05,0.837,2.0,1.331,0.028
10/06/2022,08:31:05,1.129,3.0,1.367,0.036
10/06/2022,08:33:05,1.170,3.0,1.403,0.036
10/06/2022,08:35:14,0.918,2.0,1.445,0.042
10/06/2022,08:37:05,1.193,3.0,1.47,0.025
10/06/2022,08:39:05,1.165,3.0,1.511,0.041
10/06/2022,08:41:06,1.255,3.0,1.552,0.041
10/06/2022,08:43:06,1.072,2.0,1.587,0.035
10/06/2022,08:45:05,0.687,2.0,1.617,0.03
10/06/2022,08:47:05,0.728,2.0,1.64,0.023
10/06/2022,08:49:05,1.322,3.0,1.677,0.037
10/06/2022,08:51:06,0.812,2.0,1.714,0.037
10/06/2022,08:53:06,0.811,2.0,1.741,0.027
10/06/2022,08:56:06,0.834,2.0,1.786,0.045
10/06/2022,08:58:13,1.409,3.0,1.82,0.034
10/06/2022,09:00:05,1.442,3.0,1.863,0.043
10/06/2022,09:02:05,1.465,3.0,1.913,0.05
10/06/2022,09:04:18,1.486,3.0,1.966,0.053
10/06/2022,09:07:06,1.530,4.0,2.037,0.071
10/06/2022,09:09:06,1.490,3.0,2.084,0.047
10/06/2022,09:11:05,1.553,4.0,2.134,0.05
10/06/2022,09:13:06,1.605,4.0,2.187,0.053
10/06/2022,09:15:05,1.431,3.0,2.24,0.053
10/06/2022,09:17:06,1.619,4.0,2.28,0.04
10/06/2022,09:19:06,1.616,4.0,2.334,0.054
10/06/2022,09:21:14,0.966,2.0,2.388,0.054
10/06/2022,09:23:05,0.904,2.0,2.417,0.029
10/06/2022,09:25:06,1.650,4.0,2.453,0.036
10/06/2022,09:27:06,1.191,3.0,2.508,0.055
10/06/2022,09:29:06,1.041,2.0,2.548,0.04
10/06/2022,09:31:16,0.972,2.0,2.583,0.035
10/06/2022,09:33:05,1.758,4.0,2.628,0.045
10/06/2022,09:35:06,1.815,4.0,2.687,0.059
10/06/2022,09:37:05,1.847,4.0,2.748,0.061
10/06/2022,09:39:06,1.871,4.0,2.81,0.062
10/06/2022,09:41:05,1.815,4.0,2.872,0.062
10/06/2022,09:43:14,1.836,4.0,2.926,0.054
10/06/2022,09:45:05,1.890,4.0,2.984,0.058
10/06/2022,09:47:05,1.323,3.0,3.038,0.054
10/06/2022,09:49:05,1.108,3.0,3.079,0.041
10/06/2022,09:51:05,1.136,3.0,3.123,0.044
10/06/2022,09:53:05,1.961,5.0,3.181,0.058
10/06/2022,09:55:05,1.990,5.0,3.229,0.048
10/06/2022,09:57:05,1.131,3.0,3.279,0.05
10/06/2022,09:59:13,1.068,2.0,3.319,0.04
10/06/2022,10:01:05,1.612,4.0,3.352,0.033
10/06/2022,10:03:06,2.039,5.0,3.415,0.063
10/06/2022,10:05:22,1.142,3.0,3.486,0.071
10/06/2022,10:07:05,2.110,5.0,3.541,0.055
10/06/2022,10:09:13,2.176,5.0,3.618,0.077
10/06/2022,10:11:05,2.222,5.0,3.686,0.068
10/06/2022,10:13:05,2.196,5.0,3.759,0.073
10/06/2022,10:15:06,1.439,3.0,3.816,0.057
10/06/2022,10:17:05,1.153,3.0,3.86,0.044
10/06/2022,10:19:05,2.159,5.0,3.909,0.049
10/06/2022,10:21:06,2.247,5.0,3.982,0.073
10/06/2022,10:23:06,2.284,5.0,4.053,0.071
10/06/2022,10:25:06,1.546,4.0,4.126,0.073
10/06/2022,10:27:05,1.173,3.0,4.167,0.041
10/06/2022,10:29:06,2.247,5.0,4.217,0.05
10/06/2022,10:31:06,2.315,5.0,4.293,0.076
10/06/2022,10:33:06,2.239,5.0,4.365,0.072
10/06/2022,10:35:06,2.348,5.0,4.441,0.076
10/06/2022,10:37:06,2.375,5.0,4.519,0.078
10/06/2022,10:39:05,2.413,6.0,4.599,0.08
10/06/2022,10:41:18,2.421,6.0,4.688,0.089
10/06/2022,10:43:04,2.482,6.0,4.76,0.072
10/06/2022,10:45:05,2.500,6.0,4.844,0.084
10/06/2022,10:47:06,2.483,6.0,4.928,0.084
10/06/2022,10:49:06,2.454,6.0,5.01,0.082
10/06/2022,10:51:05,2.438,6.0,5.091,0.081
10/06/2022,10:53:05,2.482,6.0,5.172,0.081
10/06/2022,10:55:06,2.497,6.0,5.256,0.084
10/06/2022,10:57:14,2.487,6.0,5.338,0.082
10/06/2022,10:59:06,2.508,6.0,5.412,0.074
10/06/2022,11:01:06,2.554,6.0,5.497,0.085
10/06/2022,11:03:05,2.564,6.0,5.582,0.085
10/06/2022,11:05:06,2.539,6.0,5.667,0.085
10/06/2022,11:07:05,2.571,6.0,5.752,0.085
10/06/2022,11:09:14,2.612,6.0,5.845,0.093
10/06/2022,11:11:06,2.646,6.0,5.927,0.082
10/06/2022,11:13:06,2.652,6.0,6.015,0.088
10/06/2022,11:15:06,2.634,6.0,6.103,0.088
10/06/2022,11:17:05,2.633,6.0,6.191,0.088
10/06/2022,11:19:13,2.532,6.0,6.284,0.093
10/06/2022,11:21:05,1.447,3.0,6.354,0.07
10/06/2022,11:23:05,1.834,4.0,6.422,0.068
10/06/2022,11:25:06,2.592,6.0,6.491,0.069
10/06/2022,11:27:06,2.603,6.0,6.578,0.087
10/06/2022,11:29:06,2.657,6.0,6.666,0.088
10/06/2022,11:31:06,1.656,4.0,6.75,0.084
10/06/2022,11:33:06,1.505,3.0,6.811,0.061
10/06/2022,11:35:06,2.672,6.0,6.868,0.057
10/06/2022,11:37:14,2.627,6.0,6.944,0.076
10/06/2022,11:39:05,1.590,4.0,7.004,0.06
10/06/2022,11:41:06,2.641,6.0,7.078,0.074
10/06/2022,11:43:06,2.638,6.0,7.166,0.088
10/06/2022,11:45:06,2.682,6.0,7.255,0.089
10/06/2022,11:47:14,2.709,6.0,7.351,0.096
10/06/2022,11:49:05,2.781,6.0,7.436,0.085
10/06/2022,11:51:06,2.360,5.0,7.522,0.086
10/06/2022,11:53:05,2.160,5.0,7.612,0.09
10/06/2022,11:55:07,2.719,6.0,7.7,0.088
10/06/2022,11:57:05,2.735,6.0,7.791,0.091
10/06/2022,11:59:06,2.745,6.0,7.872,0.081
10/06/2022,12:01:05,2.689,6.0,7.962,0.09
10/06/2022,12:03:06,2.708,6.0,8.051,0.089
10/06/2022,12:05:22,2.619,6.0,8.154,0.103
10/06/2022,12:07:06,1.537,4.0,8.204,0.05
10/06/2022,12:09:06,2.733,6.0,8.288,0.084
10/06/2022,12:11:06,2.602,6.0,8.38,0.092
10/06/2022,12:13:05,1.554,4.0,8.437,0.057
10/06/2022,12:15:06,1.475,3.0,8.505,0.068
10/06/2022,12:17:14,1.742,4.0,8.557,0.052
10/06/2022,12:19:06,1.576,4.0,8.625,0.068
10/06/2022,12:21:05,2.729,6.0,8.708,0.083
10/06/2022,12:23:14,2.762,6.0,8.806,0.098
10/06/2022,12:25:05,2.774,6.0,8.89,0.084
10/06/2022,12:27:06,1.499,3.0,8.963,0.073
10/06/2022,12:29:06,2.715,6.0,9.049,0.086
10/06/2022,12:31:06,2.723,6.0,9.14,0.091
10/06/2022,12:33:05,2.583,6.0,9.211,0.071
10/06/2022,12:35:14,2.715,6.0,9.308,0.097
10/06/2022,12:37:06,2.662,6.0,9.39,0.082
10/06/2022,12:39:06,2.658,6.0,9.479,0.089
10/06/2022,12:41:06,2.688,6.0,9.568,0.089
10/06/2022,12:43:06,2.709,6.0,9.658,0.09
10/06/2022,12:45:16,2.477,6.0,9.749,0.091
10/06/2022,12:47:05,2.658,6.0,9.831,0.082
10/06/2022,12:49:06,1.245,3.0,9.891,0.06
10/06/2022,12:51:06,1.318,3.0,9.933,0.042
10/06/2022,12:53:06,2.589,6.0,9.991,0.058
10/06/2022,12:55:06,2.588,6.0,10.078,0.087
10/06/2022,12:57:05,2.599,6.0,10.164,0.086
10/06/2022,12:59:06,2.607,6.0,10.251,0.087
10/06/2022,13:01:06,2.593,6.0,10.338,0.087
10/06/2022,13:03:14,1.393,3.0,10.409,0.071
10/06/2022,13:05:06,1.497,3.0,10.455,0.046
10/06/2022,13:07:05,1.413,3.0,10.509,0.054
10/06/2022,13:09:06,1.456,3.0,10.556,0.047
10/06/2022,13:11:06,2.512,6.0,10.607,0.051
10/06/2022,13:13:05,2.568,6.0,10.692,0.085
10/06/2022,13:15:05,2.538,6.0,10.777,0.085
10/06/2022,13:17:06,2.276,5.0,10.854,0.077
10/06/2022,13:19:06,2.503,6.0,10.936,0.082
10/06/2022,13:21:14,2.482,6.0,11.025,0.089
10/06/2022,13:23:06,2.486,6.0,11.098,0.073
10/06/2022,13:25:06,2.513,6.0,11.167,0.069
10/06/2022,13:27:06,2.558,6.0,11.252,0.085
10/06/2022,13:29:06,2.475,6.0,11.326,0.074
10/06/2022,13:31:06,1.323,3.0,11.385,0.059
10/06/2022,13:33:06,1.435,3.0,11.444,0.059
10/06/2022,13:35:05,1.208,3.0,11.496,0.052
10/06/2022,13:37:06,1.221,3.0,11.535,0.039
10/06/2022,13:39:14,2.379,5.0,11.605,0.07
10/06/2022,13:41:05,1.763,4.0,11.678,0.073
10/06/2022,13:43:06,1.222,3.0,11.724,0.046
10/06/2022,13:45:06,1.108,3.0,11.762,0.038
10/06/2022,13:47:06,0.988,2.0,11.797,0.035
10/06/2022,13:49:05,1.054,2.0,11.831,0.034
10/06/2022,13:51:05,2.229,5.0,11.88,0.049
10/06/2022,13:53:06,2.223,5.0,11.941,0.061
10/06/2022,13:55:06,1.244,3.0,11.996,0.055
10/06/2022,13:57:06,1.203,3.0,12.036,0.04
10/06/2022,13:59:06,1.288,3.0,12.079,0.043
10/06/2022,14:01:06,1.461,3.0,12.13,0.051
10/06/2022,14:03:06,1.373,3.0,12.176,0.046
10/06/2022,14:05:04,1.648,4.0,12.222,0.046
10/06/2022,14:07:16,2.211,5.0,12.289,0.067
10/06/2022,14:09:08,2.176,5.0,12.343,0.054
10/06/2022,14:11:06,1.502,3.0,12.4,0.057
10/06/2022,14:13:06,2.174,5.0,12.464,0.064
10/06/2022,14:15:06,2.159,5.0,12.536,0.072
10/06/2022,14:17:06,1.458,3.0,12.599,0.063
10/06/2022,14:19:06,1.568,4.0,12.647,0.048
10/06/2022,14:21:06,1.344,3.0,12.708,0.061
10/06/2022,14:23:06,1.958,5.0,12.761,0.053
10/06/2022,14:25:06,1.343,3.0,12.804,0.043
10/06/2022,14:27:06,1.967,5.0,12.86,0.056
10/06/2022,14:29:06,1.560,4.0,12.917,0.057
10/06/2022,14:31:06,1.813,4.0,12.979,0.062
10/06/2022,14:33:06,1.027,2.0,13.025,0.046
10/06/2022,14:35:06,1.039,2.0,13.059,0.034
10/06/2022,14:37:06,1.892,4.0,13.116,0.057
10/06/2022,14:39:06,1.026,2.0,13.166,0.05
10/06/2022,14:41:14,0.875,2.0,13.2,0.034
10/06/2022,14:43:05,1.057,2.0,13.229,0.029
10/06/2022,14:45:06,0.995,2.0,13.265,0.036
10/06/2022,14:47:06,1.731,4.0,13.314,0.049
10/06/2022,14:49:07,1.056,2.0,13.364,0.05
10/06/2022,14:51:06,1.080,2.0,13.413,0.049
10/06/2022,14:53:06,1.691,4.0,13.462,0.049
10/06/2022,14:55:06,1.660,4.0,13.517,0.055
10/06/2022,14:57:06,1.655,4.0,13.572,0.055
10/06/2022,14:59:15,1.578,4.0,13.628,0.056
10/06/2022,15:01:06,1.416,3.0,13.674,0.046
10/06/2022,15:03:06,1.578,4.0,13.726,0.052
10/06/2022,15:05:06,1.612,4.0,13.777,0.051
10/06/2022,15:07:06,1.605,4.0,13.828,0.051
10/06/2022,15:09:06,1.547,4.0,13.878,0.05
10/06/2022,15:11:06,1.023,2.0,13.926,0.048
10/06/2022,15:12:57,1.496,3.0,13.958,0.032
10/06/2022,15:15:08,1.491,3.0,14.013,0.055
10/06/2022,15:17:06,1.065,2.0,14.056,0.043
10/06/2022,15:19:07,0.872,2.0,14.092,0.036
10/06/2022,15:21:06,1.355,3.0,14.125,0.033
10/06/2022,15:23:06,1.396,3.0,14.171,0.046
10/06/2022,15:25:07,1.021,2.0,14.212,0.041
10/06/2022,15:27:06,0.803,2.0,14.243,0.031
10/06/2022,15:29:06,0.787,2.0,14.269,0.026
10/06/2022,15:31:06,1.164,3.0,14.301,0.032
10/06/2022,15:33:06,0.918,2.0,14.338,0.037
10/06/2022,15:35:06,1.318,3.0,14.379,0.041
10/06/2022,15:37:14,1.289,3.0,14.426,0.047
10/06/2022,15:39:06,0.910,2.0,14.458,0.032
10/06/2022,15:41:06,1.235,3.0,14.497,0.039
10/06/2022,15:43:06,1.208,3.0,14.536,0.039
10/06/2022,15:45:06,1.206,3.0,14.576,0.04
10/06/2022,15:47:06,1.195,3.0,14.616,0.04
10/06/2022,15:49:06,1.165,3.0,14.656,0.04
10/06/2022,15:51:47,1.115,3.0,14.706,0.05
10/06/2022,15:54:07,1.124,3.0,14.745,0.039
10/06/2022,15:56:06,1.100,3.0,14.783,0.038
10/06/2022,15:58:15,1.011,2.0,14.817,0.034
10/06/2022,16:00:06,0.683,2.0,14.839,0.022
10/06/2022,16:02:06,0.677,2.0,14.863,0.024
10/06/2022,16:04:06,0.608,1.0,14.885,0.022
10/06/2022,16:06:06,0.601,1.0,14.905,0.02
10/06/2022,16:08:06,0.573,1.0,14.924,0.019
10/06/2022,16:10:06,0.546,1.0,14.943,0.019
10/06/2022,16:12:06,0.562,1.0,14.961,0.018
10/06/2022,16:14:06,0.544,1.0,14.98,0.019
10/06/2022,16:16:06,0.495,1.0,14.997,0.017
10/06/2022,16:18:23,0.567,1.0,15.018,0.021
10/06/2022,16:20:06,0.635,1.0,15.036,0.018
10/06/2022,16:22:07,0.801,2.0,15.059,0.023
10/06/2022,16:24:06,0.788,2.0,15.083,0.024
10/06/2022,16:26:06,0.756,2.0,15.108,0.025
10/06/2022,16:28:06,0.558,1.0,15.131,0.023
10/06/2022,16:30:07,0.531,1.0,15.15,0.019
10/06/2022,16:32:06,0.699,2.0,15.17,0.02
10/06/2022,16:34:07,0.554,1.0,15.192,0.022
10/06/2022,16:36:14,0.498,1.0,15.211,0.019
10/06/2022,16:38:06,0.544,1.0,15.228,0.017
10/06/2022,16:40:06,0.514,1.0,15.246,0.018
10/06/2022,16:42:06,0.627,1.0,15.266,0.02
10/06/2022,16:44:06,0.527,1.0,15.283,0.017
10/06/2022,16:46:06,0.536,1.0,15.3,0.017
10/06/2022,16:48:15,0.585,1.0,15.321,0.021
10/06/2022,16:50:06,0.433,1.0,15.336,0.015
10/06/2022,16:52:06,0.536,1.0,15.351,0.015
10/06/2022,16:54:14,0.539,1.0,15.37,0.019
10/06/2022,16:56:06,0.445,1.0,15.384,0.014
10/06/2022,16:58:06,0.498,1.0,15.402,0.018
10/06/2022,17:00:06,0.446,1.0,15.417,0.015
10/06/2022,17:02:06,0.385,1.0,15.432,0.015
10/06/2022,17:04:06,0.388,1.0,15.444,0.012
10/06/2022,17:06:06,0.336,1.0,15.456,0.012
10/06/2022,17:08:06,0.285,1.0,15.467,0.011
10/06/2022,17:10:06,0.279,1.0,15.477,0.01
10/06/2022,17:12:06,0.299,1.0,15.486,0.009
10/06/2022,17:14:06,0.296,1.0,15.496,0.01
10/06/2022,17:16:06,0.282,1.0,15.506,0.01
10/06/2022,17:18:07,0.260,1.0,15.515,0.009
10/06/2022,17:20:14,0.216,0.0,15.523,0.008
10/06/2022,17:22:06,0.202,0.0,15.53,0.007
10/06/2022,17:24:06,0.184,0.0,15.536,0.006
10/06/2022,17:26:06,0.178,0.0,15.542,0.006
10/06/2022,17:28:07,0.185,0.0,15.548,0.006
10/06/2022,17:30:14,0.194,0.0,15.555,0.007
10/06/2022,17:32:06,0.205,0.0,15.561,0.006
10/06/2022,17:34:06,0.194,0.0,15.568,0.007
10/06/2022,17:36:06,0.191,0.0,15.574,0.006
10/06/2022,17:38:06,0.185,0.0,15.58,0.006
10/06/2022,17:40:06,0.181,0.0,15.587,0.007
10/06/2022,17:42:06,0.164,0.0,15.592,0.005
10/06/2022,17:44:07,0.169,0.0,15.598,0.006
10/06/2022,17:46:06,0.175,0.0,15.604,0.006
10/06/2022,17:48:07,0.153,0.0,15.609,0.005
10/06/2022,17:50:06,0.151,0.0,15.614,0.005
10/06/2022,17:52:07,0.165,0.0,15.619,0.005
10/06/2022,17:54:06,0.179,0.0,15.625,0.006
10/06/2022,17:56:07,0.161,0.0,15.631,0.006
10/06/2022,17:58:06,0.135,0.0,15.636,0.005
10/06/2022,18:00:06,0.122,0.0,15.64,0.004
10/06/2022,18:02:06,0.112,0.0,15.644,0.004
10/06/2022,18:04:06,0.108,0.0,15.648,0.004
10/06/2022,18:06:06,0.110,0.0,15.651,0.003
10/06/2022,18:08:06,0.109,0.0,15.655,0.004
10/06/2022,18:10:06,0.108,0.0,15.659,0.004
10/06/2022,18:12:06,0.107,0.0,15.662,0.003
10/06/2022,18:14:06,0.103,0.0,15.666,0.004
10/06/2022,18:16:06,0.108,0.0,15.669,0.003
10/06/2022,18:18:06,0.126,0.0,15.673,0.004
10/06/2022,18:20:07,0.122,0.0,15.677,0.004
10/06/2022,18:22:06,0.112,0.0,15.681,0.004
10/06/2022,18:24:07,0.097,0.0,15.685,0.004
10/06/2022,18:26:07,0.084,0.0,15.688,0.003
10/06/2022,18:28:06,0.087,0.0,15.691,0.003
10/06/2022,18:30:14,0.080,0.0,15.694,0.003
10/06/2022,18:32:06,0.074,0.0,15.696,0.002
10/06/2022,18:34:06,0.079,0.0,15.698,0.002
10/06/2022,18:36:07,0.076,0.0,15.701,0.003
10/06/2022,18:38:07,0.073,0.0,15.704,0.003
10/06/2022,18:40:06,0.078,0.0,15.706,0.002
10/06/2022,18:42:06,0.080,0.0,15.709,0.003
10/06/2022,18:44:06,0.079,0.0,15.711,0.002
10/06/2022,18:46:07,0.072,0.0,15.714,0.003
10/06/2022,18:48:07,0.069,0.0,15.716,0.002
10/06/2022,18:50:07,0.068,0.0,15.718,0.002
10/06/2022,18:52:06,0.066,0.0,15.721,0.003
10/06/2022,18:54:06,0.063,0.0,15.723,0.002
10/06/2022,18:56:06,0.060,0.0,15.725,0.002
10/06/2022,18:58:07,0.057,0.0,15.727,0.002
10/06/2022,19:00:06,0.054,0.0,15.729,0.002
10/06/2022,19:02:06,0.051,0.0,15.73,0.001
10/06/2022,19:04:06,0.047,0.0,15.732,0.002
10/06/2022,19:06:15,0.045,0.0,15.734,0.002
10/06/2022,19:08:06,0.040,0.0,15.735,0.001
10/06/2022,19:10:06,0.038,0.0,15.736,0.001
10/06/2022,19:12:07,0.035,0.0,15.737,0.001
10/06/2022,19:14:07,0.036,0.0,15.739,0.002
10/06/2022,19:16:06,0.036,0.0,15.74,0.001
10/06/2022,19:18:07,0.030,0.0,15.741,0.001
10/06/2022,19:20:06,0.027,0.0,15.742,0.001
10/06/2022,19:22:07,0.027,0.0,15.743,0.001
10/06/2022,19:24:07,0.025,0.0,15.744,0.001
10/06/2022,19:26:06,0.024,0.0,15.744,0.0
10/06/2022,19:28:06,0.021,0.0,15.745,0.001
10/06/2022,19:30:06,0.017,0.0,15.746,0.001